Bloomington, IL

4:42 AM CDT on September 27, 2016 (GMT -0500)
Central Ill Regional

Weather History for KBMI - October, 2010

Change the Weather History Date:

Saturday, October 23, 2010

  Actual Average Record
Temperature  
Mean Temperature 60 °F -  
Max Temperature 70 °F 59 °F 75 °F (2000)
Min Temperature 53 °F 29 °F 29 °F (1978)
Degree Days  
Heating Degree Days 4    
Growing Degree Days 10 (Base 50)    
Moisture  
Dew Point 48 °F    
Average Humidity 67    
Maximum Humidity 96    
Minimum Humidity 42    
Precipitation  
Precipitation 0.61 in - - ()
Sea Level Pressure  
Sea Level Pressure 29.99 in    
Wind  
Wind Speed 11 mph (South)    
Max Wind Speed 16 mph    
Max Gust Speed -    
Visibility 8 miles    
Events Rain , Thunderstorm    
Averages and records for this station are not official NWS values.
T = Trace of Precipitation, MM = Missing Value Source: NWS Daily Summary

Daily Weather History Graph

Daily Weather History Graph

Search for Another Location

Airport or City:

Trip Planner

Search our weather history database for the weather conditions in past years. The results will help you decide how hot, cold, wet, or windy it might be!

Date:

Astronomy

Oct. 23, 2010 Rise Set
Actual Time 7:15 AM CDT 6:03 PM CDT
Civil Twilight 6:47 AM CDT 6:31 PM CDT
Nautical Twilight 6:15 AM CDT 7:03 PM CDT
Astronomical Twilight 5:44 AM CDT 7:35 PM CDT
Moon 6:06 PM CDT (10/23) 7:55 AM CDT (10/23)
Length of Visible Light 11h 44m
Length of Day
10h 48m
Full, 100% of the Moon is Illuminated
Oct 23
Full
Oct 30
Last Quarter
Nov 5
New
Nov 13
First Quarter
Nov 21
Full

Hourly Weather History & Observations

Time (CDT) Temp. Dew Point Humidity Pressure Visibility Wind Dir Wind Speed Gust Speed Precip Events Conditions
12:56 AM 56.8 °F 36.9 °F 47% 30.05 in 10.0 mi SSW 10.4 mph - N/A   Clear
2:56 AM 61.0 °F 37.9 °F 42% 30.03 in 10.0 mi SSW 12.7 mph - N/A   Partly Cloudy
3:56 AM 61.0 °F 38.8 °F 44% 30.01 in 10.0 mi South 12.7 mph - N/A   Scattered Clouds
4:56 AM 61.0 °F 38.8 °F 44% 30.00 in 10.0 mi South 13.8 mph - N/A   Clear
5:56 AM 61.9 °F 38.8 °F 43% 30.00 in 10.0 mi South 13.8 mph - N/A   Mostly Cloudy
6:56 AM 61.0 °F 41.0 °F 48% 30.02 in 10.0 mi South 13.8 mph - 0.00 in Rain Light Rain
7:56 AM 61.0 °F 41.0 °F 48% 30.02 in 10.0 mi South 12.7 mph - 0.00 in Rain Light Rain
8:56 AM 57.9 °F 45.9 °F 64% 30.05 in 10.0 mi SW 6.9 mph - 0.00 in   Scattered Clouds
9:33 AM 57.2 °F 48.2 °F 72% 30.08 in 5.0 mi SW 5.8 mph - 0.00 in Rain Light Rain
9:56 AM 55.9 °F 48.9 °F 77% 30.07 in 5.0 mi Calm Calm - 0.04 in Rain Light Rain
10:56 AM 54.0 °F 50.0 °F 86% 30.08 in 3.0 mi SSW 9.2 mph - 0.09 in Rain , Thunderstorm Light Thunderstorms and Rain
11:12 AM 55.4 °F 51.8 °F 88% 30.07 in 1.5 mi SSW 9.2 mph - 0.12 in Rain Light Rain
11:23 AM 53.6 °F 51.8 °F 94% 30.07 in 4.0 mi WSW 4.6 mph - 0.16 in Rain , Thunderstorm Light Thunderstorms and Rain
11:56 AM 54.0 °F 52.9 °F 96% 30.05 in 4.0 mi South 11.5 mph - 0.36 in Rain , Thunderstorm Light Thunderstorms and Rain
12:40 PM 55.4 °F 53.6 °F 94% 30.02 in 8.0 mi SSE 5.8 mph - 0.06 in Thunderstorm Overcast
12:56 PM 55.9 °F 54.0 °F 93% 30.00 in 10.0 mi SE 9.2 mph - 0.06 in   Overcast
1:56 PM 59.9 °F 54.0 °F 81% 29.95 in 10.0 mi SE 9.2 mph - 0.02 in   Overcast
2:56 PM 63.0 °F 54.0 °F 72% 29.93 in 10.0 mi SSE 13.8 mph - N/A   Mostly Cloudy
3:56 PM 64.9 °F 55.9 °F 73% 29.92 in 10.0 mi SE 10.4 mph - N/A   Mostly Cloudy
4:56 PM 68.9 °F 59.0 °F 71% 29.90 in 10.0 mi SSE 9.2 mph - 0.04 in   Mostly Cloudy
5:56 PM 66.9 °F 56.8 °F 70% 29.90 in 10.0 mi South 12.7 mph - N/A   Scattered Clouds
6:56 PM 63.9 °F 54.0 °F 70% 29.90 in 10.0 mi South 13.8 mph - N/A   Clear
7:56 PM 64.9 °F 50.9 °F 60% 29.90 in 10.0 mi South 13.8 mph - N/A   Clear
8:56 PM 64.9 °F 48.9 °F 56% 29.90 in 10.0 mi South 16.1 mph - N/A   Clear
9:56 PM 63.9 °F 48.9 °F 58% 29.90 in 10.0 mi South 16.1 mph - N/A   Clear
10:56 PM 63.0 °F 48.9 °F 60% 29.92 in 10.0 mi South 16.1 mph - N/A   Clear
11:56 PM 61.9 °F 47.8 °F 60% 29.91 in 10.0 mi South 15.0 mph - N/A   Clear